Regional Weather Roundup
Issued by NWS

Home | Current Version | Previous Version | Text Only | Print | Product List | Glossary On
Versions: 1 2 3 4 5 6 7 8 9 10 11 12 13 14 15 16 17 18 19 20 21 22 23 24 25 26 27 28 29 30 31 32 33 34 35 36 37 38 39 40 41 42 43 44 45 46 47 48 49 50
000
ASUS46 KSEW 011610
RWRWA

WASHINGTON REGIONAL WEATHER ROUNDUP
NATIONAL WEATHER SERVICE SEATTLE WA
900 AM PDT SAT AUG 01 2015

NOTE:"FAIR" INDICATES FEW OR NO CLOUDS BELOW 12,000 FEET WITH NO
SIGNIFICANT WEATHER AND/OR OBSTRUCTIONS TO VISIBILITY.

WAZ505-507>509-011700-
SEATTLE, TACOMA, EVERETT, AND VICINITY

CITY           SKY/WX    TMP DP  RH WIND       PRES   REMARKS
EVERETT        SUNNY     68  48  48 N5        30.04S
BOEING FIELD   SUNNY     71  50  47 NW6       30.02S
RENTON         SUNNY     69  52  54 N5        30.02S
SEATAC AIRPORT MOSUNNY   71  49  45 W5        30.04S
JBLM-MCCHORD   SUNNY     68  52  55 NW2       30.02F
PUYALLUP       FAIR      72  52  49 CALM      30.03F
BREMERTON      SUNNY     72  50  46 NE9       30.05F
JBLM-FT LEWIS  SUNNY     68  52  57 VRB1      30.02S
TACOMA NARROWS SUNNY     66  50  56 VRB3      30.03F
$$

WAZ001-503-506-510-514-515-011700-
NORTH INTERIOR

CITY           SKY/WX    TMP DP  RH WIND       PRES   REMARKS
BELLINGHAM     SUNNY     68  60  75 VRB3      30.03R
FRIDAY HARBOR  SUNNY     65  51  60 CALM      30.04S
EASTSOUND      SUNNY     66  57  72 N7        30.02S
PORT ANGELES   SUNNY     66  52  60 CALM      30.04S
PORT TOWNSEND  FAIR      70  55  60 CALM      30.03S
NAS WHIDBEY    MOSUNNY   59  53  80 W7        30.07S
ARLINGTON      SUNNY     66  48  52 CALM      30.04S
BURLINGTON     SUNNY     70  57  64 NW8       30.03S
$$

WAZ020-022-039-040-504-511-512-011700-
SOUTHWEST INTERIOR

CITY           SKY/WX    TMP DP  RH WIND       PRES   REMARKS
SHELTON        SUNNY     69  50  50 CALM      30.01S
OLYMPIA        SUNNY     67  49  52 CALM      30.02F
CHEHALIS       FAIR      64  54  68 CALM      30.03F HAZE
KELSO          SUNNY     64  48  55 N5        30.04S
VANCOUVER      SUNNY     69  51  52 NW7       29.98F
SCAPPOOSE, OR  SUNNY     73  45  36 N13       29.98S
PORTLAND, OR   MOSUNNY   69  52  54 W8        29.98F
$$

WAZ021-516-517-011700-
WASHINGTON COAST

CITY           SKY/WX    TMP DP  RH WIND       PRES   REMARKS
FORKS          CLOUDY    57  57 100 NW3       30.03S
HOQUIAM        CLOUDY    56  55  97 VRB3      30.03F FOG
ASTORIA, OR    CLOUDY    61  57  87 CALM      30.00F
$$

WAZ019-023-024-040-518-519-011700-
CASCADE MOUNTAINS AND COLUMBIA GORGE

CITY           SKY/WX    TMP DP  RH WIND       PRES   REMARKS
TROUTDALE, OR  SUNNY     69  53  56 CALM      29.97F
THE DALLES, OR SUNNY     77  46  33 CALM      29.92F
$$

WAZ026-027-041>044-520-521-011700-
EAST SLOPES

CITY           SKY/WX    TMP DP  RH WIND       PRES   REMARKS
OMAK           SUNNY     81  37  20 NW13      29.96S
WENATCHEE      SUNNY     80  42  25 W10       29.95S
ELLENSBURG     SUNNY     85  41  21 NW16G22   29.98S
YAKIMA         SUNNY     82  43  25 VRB5      29.95F
$$

WAZ028-034-035-011700-
COLUMBIA BASIN

CITY           SKY/WX    TMP DP  RH WIND       PRES   REMARKS
EPHRATA        HAZE      85  34  16 NW6       29.93S VSB 3/4
MOSES LAKE     PTSUNNY   74  46  36 SE3       29.94S
PASCO          SUNNY     80  46  30 CALM      29.92R
HERMISTON, OR  SUNNY     81  41  24 NW5       29.92S
$$

WAZ036>038-011700-
NORTHEAST WASHINGTON

CITY           SKY/WX    TMP DP  RH WIND       PRES   REMARKS
SPOKANE GEIGER MOSUNNY   79  34  19 SE7       29.99R
SPOKANE FELTS  SUNNY     76  43  30 CALM      29.98S
FAIRCHILD AFB  SUNNY     81  33  17 VRB5      29.99R
COEURDALENE,ID SUNNY     77  43  29 SE6       29.98S
DEER PARK      SUNNY     78  37  22 SE3       29.99R
$$

WAZ029>033-011700-
SOUTHEAST WASHINGTON

CITY           SKY/WX    TMP DP  RH WIND       PRES   REMARKS
PULLMAN        SUNNY     83  35  18 VRB5      30.03S
LEWISTON, ID   SUNNY     77  42  28 VRB5      29.97S
WALLA WALLA    SUNNY     88  36  15 SW12      29.95R
PENDLETON, OR  SUNNY     83  34  17 S3        29.97S
$$


USA.gov is the U.S. government's official web portal to all federal, state and local government web resources and services.